Regional Weather Roundup
Issued by NWS

Home | Current Version | Previous Version | Text Only | Print | Product List | Glossary On
Versions: 1 2 3 4 5 6 7 8 9 10 11 12 13 14 15 16 17 18 19 20 21 22 23 24 25 26 27 28 29 30 31 32 33 34 35 36 37 38 39 40 41 42 43 44 45 46 47 48 49 50
000
ASUS43 KIND 280209
RWRIN

WEATHER ROUNDUP FOR INDIANA
NATIONAL WEATHER SERVICE INDIANAPOLIS IN
1000 PM EDT WED AUG 27 2014

NOTE: "FAIR" INDICATES FEW OR NO CLOUDS BELOW 12,000 FEET WITH NO
SIGNIFICANT WEATHER AND/OR OBSTRUCTIONS TO VISIBILITY.

* - STATION DOES NOT REPORT WEATHER SUCH AS PRECIPITATION OR FOG.

+ - STATION NOT QUALITY CONTROLLED BY THE NATIONAL WEATHER SERVICE.
    USE DATA WITH CAUTION...ESPECIALLY DEWPOINT AND RELATIVE
    HUMIDITY OBSERVATIONS.

INZ001>003-010>013-019-020-280300-
NORTHWEST INDIANA

CITY           SKY/WX    TMP DP  RH WIND       PRES   REMARKS
GARY /AIRPORT/ PTCLDY    70  59  68 NE8       30.13R
KNOX *+        PTCLDY    64  58  81 CALM      30.11R
LA PORTE +     PTCLDY    65  59  81 NE8       30.13R
MICHIGAN CITY+ PTCLDY    63  59  88 CALM      30.13R
MONTICELLO +   PTCLDY    68  62  81 N6        30.11R
RENSSELAER +   MOCLDY    66  63  88 CALM      30.12R
VALPARAISO     PTCLDY    64  59  83 CALM      30.13R

$$

LMZ046-743>745-280300-
SOUTHERN LAKE MICHIGAN

STATION/POSITION TIME  TEMP WIND        PRES
                       AIR  DIR/SP/G
                 (UTC) (F)  (DEG/KT/KT) (MB)
MICHIGAN CITY    0200   69   20/ 15/ 18   N/A

$$

INZ004-005-014>016-021>024-280300-
NORTH CENTRAL INDIANA

CITY           SKY/WX    TMP DP  RH WIND       PRES   REMARKS
GOSHEN         MOCLDY    66  62  87 N5        30.12R
LOGANSPORT +   CLEAR     66  61  82 N6        30.12R
PERU/GRISSOM   PTCLDY    71  68  92 N8        30.11R
ROCHESTER +    PTCLDY    68  61  77 CALM      30.12R
SOUTH BEND     MOCLDY    66  59  78 N7        30.13R
WARSAW +       PTCLDY    68  63  83 N3        30.11R

$$

INZ006>009-017-018-025>027-280300-
NORTHEAST INDIANA

CITY           SKY/WX    TMP DP  RH WIND       PRES   REMARKS
ANGOLA *+      CLEAR     68  61  77 CALM      30.12R
AUBURN +       MOCLDY    68  57  68 N5        30.12R
FORT WAYNE     MOCLDY    69  61  75 N5        30.11R
HUNTINGTON +   CLEAR     69  62  77 N3        30.10R

$$

INZ028-029-035-036-043>045-051>053-280300-
WEST CENTRAL INDIANA

CITY           SKY/WX    TMP DP  RH WIND       PRES   REMARKS
GREENCASTLE +  CLOUDY    73  70  88 N6        30.09R
LAFAYETTE      PTCLDY    70  64  81 N9        30.09R
TERRE HAUTE    CLOUDY    78  71  79 N9        30.07S

$$

INZ030>032-037>040-046>048-054>057-064-065-280300-
CENTRAL INDIANA

CITY           SKY/WX    TMP DP  RH WIND       PRES   REMARKS
CP ATTERBURY + PTCLDY    77  70  78 N3        30.08R
COLUMBUS       CLOUDY    75  73  94 CALM      30.07R
FRANKFORT +    PTCLDY    71  64  79 N5        30.11S
INDIANAPOLIS   MOCLDY    77  66  68 N10       30.08R
-EAGLE CREEK   MOCLDY    76  65  68 N6        30.08R
KOKOMO *+      PTCLDY    70  63  78 N7        30.11R
MARION +       PTCLDY    69  62  78 N5        30.11R
MT COMFORT *+  CLEAR     72  72 100 N5        30.10R
SHELBYVILLE    PTCLDY    76  70  82 N5        30.07R
ZIONSVILLE +   PTCLDY    70  65  84 N5        30.11R

$$

INZ033-034-041-042-049-050-058-059-280300-
EAST CENTRAL INDIANA

CITY           SKY/WX    TMP DP  RH WIND       PRES   REMARKS
MUNCIE         CLEAR     68  63  84 CALM      30.10R

$$

INZ060-061-067>069-081>083-085>088-280300-
SOUTHWEST INDIANA

CITY           SKY/WX    TMP DP  RH WIND       PRES   REMARKS
EVANSVILLE     MOCLDY    81  68  64 NE10      30.06S
WASHINGTON +   CLOUDY    75  75  98 CALM      30.05S

$$

INZ062-063-066-070>080-084-089>092-280300-
SOUTH CENTRAL AND SOUTHEAST INDIANA

CITY           SKY/WX    TMP DP  RH WIND       PRES   REMARKS
BEDFORD +      MOCLDY    77  66  69 CALM      30.06
BLOOMINGTON    MOCLDY    77  73  87 NW3       30.08R

$$



USA.gov is the U.S. government's official web portal to all federal, state and local government web resources and services.